Tracking 30703 objects as of 13-Jun-2025
HD Live streaming from Space Station
objects crossing your sky now

STARLINK-5820

Track STARLINK-5820 now!
10-day predictions
STARLINK-5820 is classified as:


NORAD ID: 55781
Int'l Code: 2023-028AS
Perigee: 576.8 km
Apogee: 581.6 km
Inclination: 70.0 °
Period: 96.1 minutes
Semi major axis: 6950 km
RCS: Unknown
Launch date: March 3, 2023
Source: United States (US)
Launch site: AIR FORCE WESTERN TEST RANGE (AFWTR)
Your satellite tracking list
Your tracking list is empty




NASA's NSSDC Master Catalog

Two Line Element Set (TLE):
1 55781U 23028AS  25163.76711692 -.00000117  00000-0 -20174-5 0  9997
2 55781  69.9987 184.9631 0003486 269.6224  90.4535 14.98331314126103
Source of the keplerian elements: AFSPC